Location: Mahannah Oil Field
(37.4664°N, 96.6003°W)
Time: 02:08:56
(UTC+00:00)

deb Explorer IX - Pass Details

Date: 27 January 2021
Orbit: 537 x 1102 km, 38.8° (Epoch: 01 March)

Event Time Altitude Azimuth Distance (km) Brightness Sun altitude
Rises 21:51:07 0° 230° (SW) 3,899 ? 18.3°
Reaches altitude 10° 21:54:02 10° 225° (SW) 2,922 ? 17.9°
Maximum altitude 22:00:53 49° 153° (SSE) 1,301 ? 16.9°
Drops below altitude 10° 22:07:08 10° 81° (E) 2,659 ? 15.9°
Sets 22:09:40 0° 76° (ENE) 3,523 ? 15.5°
